Find SBSS 1

NORAD ID: 37168 Int'l Des: 2010-048 Owner: AFSMC Country: US Constellation: satellogic operational
LEOCIRCULARRETROGRADESSO

現在のビュー

3D地球を読み込み中...

About SBSS 1

SBSS 1 (NORAD 37168) is a satellogic constellation satellite launched Sep 26, 2010 by AFSMC of US. It operates in LEO, CIRCULAR, RETROGRADE, SSO orbit with a mass of 1031.00 kg.

SBSS 1について

説明を読み込み中...

次回通過

Passes for default location (London). Set your location on the main map for personalized predictions.

高度履歴

Loading altitude history...

軌道要素

1 37168U 10048A 26195.19460273 .00002666 00000-0 12834-3 0 9994
2 37168 97.7299 81.1786 0082272 109.9986 8.2359 15.16724180856566
Epoch: Jul 14, 2026 • Age: 18 hours

現在のステータス

高度 477.1 km
遠地点 / 近地点 N/A
速度 7.65 km/s
衛星直下点 30.75°N, 0.44°E
打ち上げ日 Sep 26, 2010
運用期間 15.7 years
タイプ other

技術仕様

分類 Payload
質量 1031.00 kg
乾燥質量 900.00 kg
総質量 1031.00 kg
長さ 3.00 m
直径 2.00 m
スパン 10.00 m
形状 Box + 2 Pan
製造者 BALL/BOSB
バスタイプ BCP-2000
フェーズステータス In Orbit
所有者/国 AFSMC/US

Most Searched